Regional Weather Roundup
Issued by NWS

Home | Current Version | Previous Version | Graphics & Text | Print | Product List | Glossary Off
Versions: 1 2 3 4 5 6 7 8 9 10 11 12 13 14 15 16 17 18 19 20 21 22 23 24 25 26 27 28 29 30 31 32 33 34 35 36 37 38 39 40 41 42 43 44 45 46 47 48 49 50

696
ASUS43 KTOP 270108
RWRKS

WEATHER ROUNDUP FOR KANSAS
NATIONAL WEATHER SERVICE GOODLAND KS
800 PM CDT TUE JUL 26 2016

NOTE:  "FAIR" INDICATES FEW OR NO CLOUDS BELOW 12,000 FEET WITH NO
SIGNIFICANT WEATHER AND/OR OBSTRUCTIONS TO VISIBILITY.

KSZ001>006-013>018-027>032-041>047-270200-
NORTHWEST KANSAS

CITY           SKY/WX    TMP DP  RH WIND       PRES   REMARKS
GOODLAND       PTSUNNY   83  67  58 S6        30.06R
HAYS           CLEAR     86  64  48 S7        29.99R
HILL CITY      CLEAR     86  66  51 S10       29.98F
RUSSELL        CLEAR     85  67  54 E9        29.97R
$$

KSZ061>065-074>080-084>089-270200-
SOUTHWEST KANSAS

CITY           SKY/WX    TMP DP  RH WIND       PRES   REMARKS
DODGE CITY     CLEAR     84  65  52 S9        30.01R
ELKHART          N/A     89  65  44 E16         N/A
GARDEN CITY    CLEAR     84  67  56 E9        30.01R
GREAT BEND     CLEAR     86  66  51 SE8       29.98R
LIBERAL        CLEAR     88  64  45 E13       30.01R
PRATT          CLEAR     84  64  50 E6        29.98R
$$

KSZ066>073-081>083-090>101-270200-
SOUTHEAST KANSAS

CITY           SKY/WX    TMP DP  RH WIND       PRES   REMARKS
CHANUTE        CLOUDY    85  73  67 E10       29.97R
COFFEYVILLE    CLOUDY    76  72  87 SE7       29.96R
HUTCHINSON     CLEAR     86  70  58 E10       29.97R
NEWTON         CLEAR     82  72  71 E8        30.00R
PARSONS        LGT RAIN  80  74  81 CALM      29.98R
WICHITA INTL   PTCLDY    86  71  60 NE17      29.96R
WICHITA JABRA  CLEAR     84  71  65 E10       29.97R
WICHITA MCCONL CLEAR     86  71  62 E10       29.97R
WINFIELD       PTCLDY    87  72  60 E12       29.96R
$$

KSZ007>012-019>026-033>040-048>060-102>105-270200-
NORTHEAST KANSAS

CITY           SKY/WX    TMP DP  RH WIND       PRES   REMARKS
CONCORDIA      PTCLDY    80  67  64 E6        29.99R
EMPORIA        CLEAR     82  68  62 E6        29.99R
LAWRENCE       CLEAR     81  69  67 E6        29.99R
MANHATTAN      CLEAR     84  71  65 E6        29.97R
MARYSVILLE     CLEAR     81  68  65 E5        30.00R
OLATHE IND     CLEAR     83  69  62 E7        30.01R
OLATHE EXE     CLEAR     81  67  62 E7        30.01R
SALINA         CLEAR     88  68  51 SE9       29.97R
TOPEKA BILLARD CLEAR     85  67  54 E6        29.98S
TOPEKA FORBES  CLEAR     85  69  58 NE3       29.99R
$$




USA.gov is the U.S. government's official web portal to all federal, state and local government web resources and services.